AAL2975 KDCA-KPVD

Flight info

Callsign AAL2975
Flight time 1h 2m
Altitude 37000
Route SOOKI6 SWANN BROSS Q419 RBV Q430 CREEL HTO JORDN2
Aircraft B738/M-SDE2E3FGHIRWXY/LB1

Departure

Time 2026-04-24 05:04
Airport Ronald Reagan Washington National Airport (KDCA)

Arrival

Time 2026-04-24 06:06
Airport Rhode Island T. F. Green International Airport (KPVD)
Time Latitude Longitude Altitude Speed Heading
2026-04-24 04:18 38.85476 -77.04144 23 ft 0 kts 178°
2026-04-24 04:53 38.85482 -77.04144 23 ft 4 kts 175°
2026-04-24 04:54 38.85506 -77.04153 25 ft 4 kts 131°
2026-04-24 04:54 38.85514 -77.04181 25 ft 4 kts 79°
2026-04-24 04:54 38.85512 -77.04191 27 ft 1 kts 72°
2026-04-24 04:58 38.85518 -77.04168 22 ft 10 kts 71°
2026-04-24 04:58 38.85547 -77.04058 25 ft 15 kts 72°
2026-04-24 04:58 38.85508 -77.03954 26 ft 17 kts 166°
2026-04-24 04:58 38.85362 -77.03937 23 ft 23 kts 175°
2026-04-24 04:59 38.85188 -77.03920 23 ft 26 kts 176°
2026-04-24 04:59 38.84997 -77.03900 23 ft 29 kts 175°
2026-04-24 04:59 38.84799 -77.03881 23 ft 28 kts 175°
2026-04-24 04:59 38.84611 -77.03860 24 ft 26 kts 177°
2026-04-24 05:00 38.84459 -77.03847 25 ft 12 kts 175°
2026-04-24 05:00 38.84431 -77.03844 27 ft 1 kts 176°
2026-04-24 05:00 38.84368 -77.03838 25 ft 21 kts 176°
2026-04-24 05:00 38.84286 -77.03798 25 ft 7 kts 114°
2026-04-24 05:01 38.84285 -77.03796 25 ft 0 kts 113°
2026-04-24 05:03 38.84276 -77.03767 27 ft 12 kts 112°
2026-04-24 05:03 38.84320 -77.03694 22 ft 16 kts 358°
2026-04-24 05:04 38.84565 -77.03717 27 ft 71 kts 356°
2026-04-24 05:04 38.85345 -77.03796 23 ft 151 kts 356°
2026-04-24 05:04 38.86562 -77.03888 488 ft 182 kts 359°
2026-04-24 05:04 38.87836 -77.03821 1714 ft 174 kts
2026-04-24 05:05 38.88958 -77.03885 3000 ft 161 kts 340°
2026-04-24 05:05 38.89929 -77.04786 3420 ft 190 kts 315°
2026-04-24 05:05 38.90936 -77.06051 3764 ft 211 kts 310°
2026-04-24 05:05 38.91483 -77.07822 4235 ft 226 kts 281°
2026-04-24 05:06 38.91923 -77.09767 4805 ft 230 kts 297°
2026-04-24 05:06 38.92533 -77.11680 5421 ft 233 kts 297°
2026-04-24 05:06 38.93646 -77.13162 6020 ft 238 kts 326°
2026-04-24 05:06 38.95128 -77.14281 6419 ft 255 kts 331°
2026-04-24 05:07 38.96775 -77.15225 7156 ft 264 kts 344°
2026-04-24 05:07 38.98609 -77.15092 8070 ft 273 kts 16°
2026-04-24 05:07 39.00333 -77.14010 8926 ft 283 kts 29°
2026-04-24 05:07 39.01931 -77.12456 9746 ft 290 kts 34°
2026-04-24 05:08 39.03471 -77.10731 10515 ft 298 kts 44°
2026-04-24 05:08 39.04465 -77.08330 11118 ft 319 kts 72°
2026-04-24 05:08 39.04904 -77.05405 11334 ft 346 kts 78°
2026-04-24 05:08 39.05283 -77.02243 11605 ft 367 kts 79°
2026-04-24 05:09 39.05663 -76.98958 12221 ft 374 kts 79°
2026-04-24 05:09 39.06055 -76.95631 13019 ft 377 kts 79°
2026-04-24 05:09 39.06462 -76.92293 13814 ft 379 kts 79°
2026-04-24 05:09 39.06883 -76.88916 14498 ft 384 kts 78°
2026-04-24 05:10 39.07312 -76.85515 15206 ft 387 kts 78°
2026-04-24 05:10 39.07741 -76.82135 15929 ft 389 kts 77°
2026-04-24 05:10 39.08176 -76.78694 16653 ft 391 kts 77°
2026-04-24 05:10 39.08614 -76.75224 17356 ft 393 kts 77°
2026-04-24 05:11 39.09072 -76.71736 18048 ft 396 kts 76°
2026-04-24 05:11 39.09567 -76.68236 18682 ft 398 kts 75°
2026-04-24 05:11 39.10076 -76.64706 19231 ft 401 kts 75°
2026-04-24 05:11 39.10585 -76.61159 19785 ft 405 kts 75°
2026-04-24 05:12 39.11093 -76.57574 20329 ft 409 kts 75°
2026-04-24 05:12 39.11601 -76.53950 20879 ft 412 kts 75°
2026-04-24 05:12 39.12094 -76.50298 21433 ft 416 kts 76°
2026-04-24 05:12 39.12524 -76.46587 21921 ft 422 kts 77°
2026-04-24 05:13 39.13333 -76.39035 22941 ft 429 kts 77°
2026-04-24 05:13 39.13745 -76.35219 23451 ft 432 kts 77°
2026-04-24 05:13 39.14167 -76.31366 23892 ft 435 kts 77°
2026-04-24 05:14 39.14590 -76.27538 24302 ft 438 kts 77°
2026-04-24 05:14 39.15019 -76.23648 24743 ft 440 kts 77°
2026-04-24 05:14 39.15458 -76.19741 25150 ft 442 kts 76°
2026-04-24 05:14 39.15913 -76.15812 25551 ft 444 kts 76°
2026-04-24 05:15 39.16375 -76.11863 25949 ft 447 kts 76°
2026-04-24 05:15 39.16840 -76.07880 26312 ft 450 kts 76°
2026-04-24 05:15 39.17301 -76.03885 26689 ft 452 kts 76°
2026-04-24 05:15 39.17762 -75.99872 27071 ft 454 kts 76°
2026-04-24 05:16 39.18225 -75.95818 27464 ft 457 kts 75°
2026-04-24 05:16 39.18818 -75.91809 27772 ft 453 kts 66°
2026-04-24 05:16 39.20079 -75.88151 28111 ft 442 kts 52°
2026-04-24 05:16 39.21881 -75.85004 28498 ft 432 kts 40°
2026-04-24 05:17 39.24091 -75.82431 28873 ft 427 kts 33°
2026-04-24 05:17 39.26395 -75.79985 29209 ft 429 kts 33°
2026-04-24 05:17 39.28707 -75.77522 29544 ft 432 kts 33°
2026-04-24 05:17 39.31013 -75.75036 29925 ft 432 kts 33°
2026-04-24 05:18 39.33315 -75.72526 30249 ft 434 kts 33°
2026-04-24 05:18 39.35584 -75.70037 30523 ft 435 kts 34°
2026-04-24 05:18 39.37887 -75.67500 30956 ft 432 kts 33°
2026-04-24 05:18 39.40157 -75.64994 31499 ft 427 kts 33°
2026-04-24 05:19 39.42417 -75.62504 31839 ft 427 kts 33°
2026-04-24 05:19 39.44684 -75.60009 32079 ft 428 kts 33°
2026-04-24 05:19 39.46960 -75.57511 32369 ft 429 kts 33°
2026-04-24 05:19 39.49228 -75.55019 32738 ft 427 kts 33°
2026-04-24 05:20 39.51496 -75.52524 33112 ft 426 kts 33°
2026-04-24 05:20 39.53748 -75.50045 33440 ft 426 kts 32°
2026-04-24 05:20 39.56007 -75.47556 33736 ft 426 kts 32°
2026-04-24 05:20 39.58236 -75.45097 34043 ft 425 kts 32°
2026-04-24 05:21 39.60512 -75.42584 34339 ft 424 kts 32°
2026-04-24 05:21 39.62728 -75.40136 34617 ft 424 kts 32°
2026-04-24 05:21 39.64975 -75.37653 34872 ft 424 kts 32°
2026-04-24 05:21 39.67216 -75.35177 35119 ft 423 kts 32°
2026-04-24 05:22 39.69457 -75.32698 35396 ft 422 kts 32°
2026-04-24 05:22 39.71688 -75.30226 35660 ft 422 kts 32°
2026-04-24 05:22 39.73920 -75.27752 35912 ft 421 kts 32°
2026-04-24 05:22 39.76147 -75.25282 36166 ft 421 kts 32°
2026-04-24 05:23 39.78368 -75.22814 36402 ft 421 kts 32°
2026-04-24 05:23 39.80490 -75.20146 36620 ft 428 kts 39°
2026-04-24 05:23 39.82462 -75.17226 36865 ft 430 kts 40°
2026-04-24 05:23 39.84398 -75.14259 37069 ft 431 kts 40°
2026-04-24 05:24 39.86346 -75.11273 37053 ft 434 kts 40°
2026-04-24 05:24 39.90269 -75.05334 37086 ft 430 kts 40°
2026-04-24 05:25 39.94186 -74.99469 37086 ft 428 kts 39°
2026-04-24 05:25 39.97971 -74.93548 37060 ft 433 kts 45°
2026-04-24 05:26 40.01322 -74.86980 37064 ft 434 kts 47°
2026-04-24 05:26 40.04603 -74.80361 37065 ft 433 kts 47°
2026-04-24 05:27 40.07908 -74.73799 37053 ft 433 kts 47°
2026-04-24 05:27 40.11244 -74.67223 37074 ft 434 kts 47°
2026-04-24 05:28 40.14582 -74.60635 37054 ft 436 kts 47°
2026-04-24 05:28 40.17936 -74.53997 37050 ft 437 kts 47°
2026-04-24 05:29 40.20972 -74.47024 37044 ft 454 kts 60°
2026-04-24 05:29 40.23024 -74.39210 37050 ft 459 kts 62°
2026-04-24 05:30 40.25032 -74.31277 37059 ft 459 kts 62°
2026-04-24 05:30 40.27085 -74.23350 37069 ft 459 kts 61°
2026-04-24 05:31 40.29155 -74.15441 37054 ft 459 kts 61°
2026-04-24 05:31 40.31220 -74.07528 37046 ft 458 kts 61°
2026-04-24 05:32 40.33275 -73.99629 37084 ft 456 kts 61°
2026-04-24 05:32 40.35304 -73.91801 37049 ft 456 kts 61°
2026-04-24 05:33 40.37342 -73.83929 37046 ft 455 kts 61°
2026-04-24 05:33 40.39371 -73.76070 37046 ft 453 kts 62°
2026-04-24 05:34 40.42053 -73.65642 37054 ft 453 kts 61°
2026-04-24 05:34 40.44064 -73.57797 37053 ft 454 kts 61°
2026-04-24 05:35 40.46936 -73.49091 37046 ft 442 kts 52°
2026-04-24 05:35 40.49798 -73.41957 37039 ft 442 kts 52°
2026-04-24 05:36 40.52207 -73.35931 36526 ft 449 kts 52°
2026-04-24 05:36 40.53621 -73.32334 35985 ft 447 kts 52°
2026-04-24 05:36 40.55031 -73.28704 35443 ft 446 kts 52°
2026-04-24 05:37 40.56442 -73.25055 34808 ft 446 kts 52°
2026-04-24 05:37 40.57847 -73.21410 34164 ft 447 kts 52°
2026-04-24 05:37 40.59244 -73.17774 33635 ft 443 kts 51°
2026-04-24 05:37 40.60626 -73.14168 33128 ft 438 kts 51°
2026-04-24 05:38 40.61988 -73.10610 32679 ft 432 kts 51°
2026-04-24 05:38 40.63336 -73.07089 32227 ft 427 kts 51°
2026-04-24 05:38 40.64665 -73.03615 31791 ft 422 kts 51°
2026-04-24 05:38 40.65965 -73.00221 31356 ft 418 kts 51°
2026-04-24 05:39 40.67269 -72.96814 30929 ft 414 kts 51°
2026-04-24 05:39 40.68561 -72.93435 30549 ft 410 kts 51°
2026-04-24 05:39 40.69840 -72.90087 30107 ft 408 kts 51°
2026-04-24 05:39 40.71111 -72.86758 29632 ft 405 kts 51°
2026-04-24 05:40 40.72369 -72.83457 29142 ft 401 kts 51°
2026-04-24 05:40 40.73612 -72.80186 28711 ft 397 kts 51°
2026-04-24 05:40 40.74844 -72.76945 28274 ft 393 kts 51°
2026-04-24 05:40 40.76064 -72.73729 27842 ft 390 kts 51°
2026-04-24 05:41 40.77274 -72.70541 27404 ft 387 kts 51°
2026-04-24 05:41 40.78473 -72.67378 27000 ft 386 kts 51°
2026-04-24 05:41 40.79673 -72.64211 26581 ft 384 kts 51°
2026-04-24 05:41 40.80874 -72.61043 26178 ft 390 kts 52°
2026-04-24 05:42 40.82104 -72.57819 25766 ft 405 kts 52°
2026-04-24 05:42 40.83368 -72.54481 25282 ft 406 kts 53°
2026-04-24 05:42 40.84620 -72.51141 24834 ft 404 kts 53°
2026-04-24 05:42 40.85860 -72.47823 24397 ft 402 kts 53°
2026-04-24 05:43 40.87101 -72.44512 23922 ft 401 kts 53°
2026-04-24 05:43 40.88337 -72.41213 23419 ft 400 kts 53°
2026-04-24 05:43 40.89570 -72.37926 22925 ft 398 kts 53°
2026-04-24 05:43 40.90794 -72.34655 22468 ft 395 kts 53°
2026-04-24 05:44 40.92008 -72.31407 22021 ft 393 kts 53°
2026-04-24 05:44 40.93178 -72.28124 21434 ft 397 kts 55°
2026-04-24 05:44 40.94298 -72.24806 21024 ft 395 kts 56°
2026-04-24 05:44 40.95401 -72.21484 20564 ft 393 kts 56°
2026-04-24 05:45 40.96497 -72.18185 20141 ft 391 kts 56°
2026-04-24 05:45 40.97594 -72.14900 19718 ft 388 kts 56°
2026-04-24 05:45 40.98690 -72.11637 19299 ft 386 kts 56°
2026-04-24 05:45 40.99768 -72.08435 18897 ft 385 kts 56°
2026-04-24 05:46 41.00858 -72.05198 18458 ft 384 kts 56°
2026-04-24 05:46 41.01944 -72.01974 18018 ft 382 kts 56°
2026-04-24 05:46 41.03021 -71.98768 17576 ft 380 kts 56°
2026-04-24 05:46 41.04088 -71.95587 17151 ft 378 kts 56°
2026-04-24 05:47 41.05174 -71.92436 16741 ft 371 kts 52°
2026-04-24 05:47 41.06537 -71.89614 16335 ft 356 kts 40°
2026-04-24 05:47 41.08105 -71.87103 15912 ft 352 kts 39°
2026-04-24 05:47 41.09684 -71.84636 15504 ft 349 kts 39°
2026-04-24 05:48 41.11252 -71.82187 15107 ft 347 kts 39°
2026-04-24 05:48 41.12807 -71.79748 14721 ft 345 kts 39°
2026-04-24 05:48 41.14346 -71.77317 14336 ft 343 kts 39°
2026-04-24 05:48 41.15872 -71.74897 13965 ft 341 kts 39°
2026-04-24 05:49 41.17391 -71.72481 13537 ft 340 kts 39°
2026-04-24 05:49 41.18877 -71.70110 13130 ft 337 kts 40°
2026-04-24 05:49 41.20370 -71.67725 12738 ft 335 kts 40°
2026-04-24 05:49 41.21840 -71.65369 12338 ft 326 kts 40°
2026-04-24 05:50 41.23259 -71.63087 11965 ft 315 kts 39°
2026-04-24 05:50 41.24630 -71.60883 11629 ft 305 kts 39°
2026-04-24 05:50 41.25962 -71.58744 11294 ft 295 kts 39°
2026-04-24 05:50 41.27254 -71.56672 10964 ft 286 kts 39°
2026-04-24 05:51 41.28506 -71.54664 10674 ft 279 kts 38°
2026-04-24 05:51 41.29721 -71.52711 10458 ft 268 kts 39°
2026-04-24 05:51 41.30902 -71.50910 10337 ft 244 kts 28°
2026-04-24 05:51 41.32146 -71.49490 10237 ft 229 kts 27°
2026-04-24 05:52 41.33327 -71.48120 10149 ft 222 kts 27°
2026-04-24 05:52 41.34481 -71.46767 10076 ft 221 kts 27°
2026-04-24 05:52 41.35643 -71.45407 10004 ft 223 kts 27°
2026-04-24 05:52 41.36822 -71.44037 9831 ft 227 kts 27°
2026-04-24 05:53 41.38012 -71.42663 9745 ft 224 kts 27°
2026-04-24 05:53 41.39085 -71.41120 9449 ft 239 kts 48°
2026-04-24 05:53 41.39605 -71.38848 8644 ft 278 kts 81°
2026-04-24 05:53 41.39264 -71.36256 7926 ft 301 kts 110°
2026-04-24 05:54 41.38035 -71.33970 7458 ft 304 kts 141°
2026-04-24 05:54 41.36248 -71.32685 7349 ft 283 kts 170°
2026-04-24 05:54 41.34382 -71.32534 7229 ft 257 kts 198°
2026-04-24 05:54 41.32851 -71.33398 7051 ft 227 kts 230°
2026-04-24 05:55 41.31958 -71.34972 6703 ft 208 kts 253°
2026-04-24 05:55 41.31501 -71.36747 6272 ft 198 kts 275°
2026-04-24 05:55 41.31743 -71.38485 5832 ft 189 kts 297°
2026-04-24 05:55 41.32429 -71.39961 5421 ft 188 kts 308°
2026-04-24 05:56 41.33265 -71.41299 5015 ft 189 kts 314°
2026-04-24 05:56 41.34168 -71.42581 4631 ft 190 kts 315°
2026-04-24 05:56 41.35089 -71.43859 4258 ft 191 kts 315°
2026-04-24 05:56 41.36009 -71.45126 3907 ft 191 kts 315°
2026-04-24 05:57 41.36936 -71.46397 3531 ft 192 kts 315°
2026-04-24 05:57 41.37872 -71.47669 3168 ft 192 kts 315°
2026-04-24 05:57 41.38809 -71.48928 2840 ft 191 kts 315°
2026-04-24 05:57 41.39744 -71.50178 2492 ft 191 kts 315°
2026-04-24 05:58 41.40676 -71.51424 2194 ft 188 kts 315°
2026-04-24 05:58 41.41596 -71.52652 2048 ft 188 kts 315°
2026-04-24 05:58 41.42522 -71.53880 2006 ft 187 kts 315°
2026-04-24 05:58 41.43444 -71.55092 2006 ft 186 kts 315°
2026-04-24 05:59 41.44374 -71.56313 1995 ft 189 kts 315°
2026-04-24 05:59 41.45306 -71.57549 1997 ft 189 kts 315°
2026-04-24 05:59 41.46232 -71.58785 1994 ft 188 kts 315°
2026-04-24 05:59 41.47153 -71.60004 1998 ft 186 kts 315°
2026-04-24 06:00 41.48097 -71.61177 1992 ft 185 kts 326°
2026-04-24 06:00 41.49331 -71.61528 1995 ft 190 kts 10°
2026-04-24 06:00 41.50531 -71.60783 1990 ft 187 kts 21°
2026-04-24 06:00 41.51636 -71.60018 2002 ft 172 kts 22°
2026-04-24 06:01 41.52667 -71.59232 2012 ft 172 kts 24°
2026-04-24 06:01 41.53682 -71.58409 2008 ft 170 kts 24°
2026-04-24 06:01 41.54671 -71.57585 2004 ft 163 kts 25°
2026-04-24 06:01 41.55615 -71.56791 1992 ft 160 kts 24°
2026-04-24 06:02 41.56556 -71.56001 1993 ft 159 kts 25°
2026-04-24 06:02 41.57481 -71.55220 1994 ft 157 kts 25°
2026-04-24 06:02 41.58385 -71.54457 1990 ft 154 kts 25°
2026-04-24 06:02 41.59285 -71.53698 2007 ft 153 kts 25°
2026-04-24 06:03 41.60168 -71.52952 1993 ft 149 kts 25°
2026-04-24 06:03 41.61051 -71.52208 2002 ft 150 kts 25°
2026-04-24 06:03 41.61937 -71.51461 1990 ft 151 kts 25°
2026-04-24 06:03 41.62822 -71.50714 1958 ft 152 kts 25°
2026-04-24 06:04 41.63720 -71.49957 1797 ft 152 kts 25°
2026-04-24 06:04 41.64614 -71.49203 1593 ft 151 kts 25°
2026-04-24 06:04 41.65499 -71.48456 1391 ft 151 kts 26°
2026-04-24 06:04 41.66389 -71.47706 1174 ft 152 kts 27°
2026-04-24 06:05 41.67289 -71.46947 950 ft 153 kts 26°
2026-04-24 06:05 41.68193 -71.46184 754 ft 154 kts 27°
2026-04-24 06:05 41.69107 -71.45417 556 ft 157 kts 29°
2026-04-24 06:05 41.70053 -71.44580 355 ft 165 kts 26°
2026-04-24 06:06 41.71004 -71.43796 109 ft 157 kts 24°
2026-04-24 06:06 41.71872 -71.43106 53 ft 127 kts 36°
2026-04-24 06:06 41.72427 -71.42626 52 ft 73 kts 32°
2026-04-24 06:06 41.72676 -71.42517 53 ft 13 kts 327°
2026-04-24 06:07 41.72694 -71.42534 50 ft 0 kts 324°
2026-04-24 06:08 41.72701 -71.42541 48 ft 5 kts 324°
2026-04-24 06:08 41.72748 -71.42582 55 ft 10 kts 321°
2026-04-24 06:09 41.72816 -71.42651 51 ft 16 kts 333°
2026-04-24 06:09 41.72919 -71.42712 57 ft 16 kts 306°
2026-04-24 06:09 41.72928 -71.42857 61 ft 15 kts 268°
2026-04-24 06:09 41.72919 -71.43002 62 ft 17 kts 264°
2026-04-24 06:10 41.72859 -71.43107 62 ft 14 kts 214°
2026-04-24 06:10 41.72768 -71.43185 63 ft 13 kts 217°
2026-04-24 06:10 41.72702 -71.43277 62 ft 9 kts 219°
2026-04-24 06:11 41.72690 -71.43359 65 ft 0 kts 278°